Terug naar catalogus

STARLINK-30795

ActiefCommunicatieVLEO
NORAD 58118·PAYLOAD·🇺🇸 United States

Gelanceerd Oct 22, 2023 vanaf Cape Canaveral Space Force Station

Loading…

Volgende Passages (komende 24 uur)

TLE

VersSource: CelesTrak SupGP

Epoch: Sep 15, 2026, 03:20 UTC

1 58118C 23162A   26258.13937500  .00066846  00000+0  24208-2 0  2583
2 58118  43.0014 142.1939 0001415 273.5689 157.3993 15.27550109    10

Volg STARLINK-30795 in realtime met AllMySat

Download on the App Store